RH
24 26 28 30 24 18 14 10 8 7 6 5 4 4 3 2 2 2 2 4 12 36 74 100 90 96 100
27 27 40 44 39 29 18 15 14 12 10 9 8 6 4 4 3 2 2 1 2 5 31 79 100 100 99
50 57 58 55 45 29 16 14 15 16 16 15 12 9 6 4 3 3 2 2 2 1 2 11 54 96 100
80 73 63 49 31 20 15 15 19 21 21 16 12 9 6 5 4 3 3 2 2 2 2 1 3 16 68
75 66 49 34 26 21 15 15 21 24 21 16 12 9 6 5 4 4 4 3 3 2 2 2 1 1 4
69 54 43 34 29 21 16 16 21 21 17 14 11 8 7 6 6 7 8 7 6 5 3 2 2 2 1
59 48 42 36 32 22 17 20 21 19 16 14 14 26 25 21 37 32 18 17 14 11 9 6 4 2 2
58 53 46 36 29 21 22 25 25 36 44 48 39 62 61 73 69 62 61 48 34 25 20 16 12 8 5
67 57 54 46 47 87 96 93 56 31 41 60 67 82 65 59 49 42 42 40 38 37 34 30 26 21 12
62 57 46 38 36 35 37 73 73 89 79 88 76 94 86 47 47 45 41 39 38 37 37 33 30 30 25
89 78 61 58 67 82 100 100 100 99 85 86 88 82 74 56 44 38 39 35 37 39 38 39 37 37 33
100 100 95 89 85 89 93 93 98 98 77 64 82 70 61 59 46 34 36 39 46 45 45 42 41 41 39
100 94 88 82 75 70 66 74 78 64 56 49 72 73 86 88 73 56 52 44 54 53 50 50 51 53 52
99 79 72 69 56 49 49 51 58 51 52 61 73 77 77 77 77 63 67 54 58 56 58 60 56 56 54
80 62 53 50 49 53 62 74 81 69 59 62 68 76 75 75 73 67 61 58 54 57 65 61 56 52 50
58 52 48 49 54 67 80 87 86 77 77 76 79 80 74 65 74 69 60 57 58 59 65 68 52 46 50
52 48 48 57 82 91 90 91 87 86 83 84 87 89 84 72 53 67 77 67 74 66 63 62 58 48 54
Wind_Speed
55 56 55 52 52 51 52 52 54 55 57 58 60 61 63 65 68 71 74 79 82 81 78 74 76 69 62
54 53 53 52 50 48 48 50 51 52 53 55 58 60 61 63 63 67 72 75 78 83 83 83 76 72 70
51 50 50 49 48 47 46 47 49 50 49 50 51 53 56 59 60 61 66 70 75 78 82 86 89 83 76
47 46 45 45 45 45 46 46 48 48 48 48 50 49 50 53 57 58 60 63 68 72 78 82 88 92 91
45 45 44 43 43 43 45 45 48 49 51 53 50 50 48 49 53 56 59 59 61 64 69 75 81 85 91
45 45 44 43 42 43 44 45 50 48 51 54 52 50 49 49 47 51 53 56 55 57 62 66 72 78 84
46 44 45 43 43 44 44 46 50 50 50 56 51 47 43 44 43 44 46 50 52 52 54 58 61 67 73
43 44 44 44 44 45 46 49 52 47 43 48 44 43 41 40 40 39 39 42 46 49 51 52 55 57 61
43 44 43 43 42 39 41 43 49 48 39 42 43 44 45 45 43 45 46 45 45 47 48 49 51 53 57
41 42 42 42 42 42 44 42 43 44 41 43 46 46 51 50 50 49 48 48 47 46 48 48 48 50 55
39 41 38 36 35 34 35 42 44 48 46 46 48 51 55 59 52 48 51 50 49 48 47 48 48 48 52
35 37 37 38 40 41 44 47 50 53 52 52 54 54 54 55 55 50 50 50 49 49 47 47 49 48 49
40 40 40 43 45 46 47 50 53 53 52 50 50 50 50 52 53 53 52 50 50 50 48 47 47 48 49
42 45 44 45 46 45 46 47 48 49 47 46 47 47 49 49 50 54 51 54 52 51 50 50 49 48 48
42 41 41 41 41 40 41 43 46 48 48 45 45 46 48 50 53 52 53 53 51 50 49 51 51 50 49
38 39 39 38 38 39 40 42 45 46 47 46 45 46 49 52 50 53 52 53 50 48 48 51 55 52 51
37 37 36 36 37 38 39 41 44 46 47 46 45 46 51 57 51 48 53 52 51 52 51 51 53 54 50
Wind_Direction
280 281 281 281 280 279 279 277 275 277 275 272 267 262 258 256 256 254 252 248 246 244 242 242 246 246 244
279 280 280 281 282 282 281 282 283 281 282 283 282 277 270 263 259 256 254 253 249 246 245 240 239 236 237
279 278 279 281 281 281 284 284 285 288 289 286 285 285 283 278 271 266 259 254 253 252 248 244 241 240 241
277 278 278 279 281 284 283 283 286 290 292 293 292 287 283 281 276 269 266 262 256 253 252 249 246 242 240
275 276 277 279 281 283 283 286 288 292 295 295 294 293 288 278 276 276 272 267 264 260 255 253 250 248 244
272 273 275 277 279 280 283 289 290 292 297 295 296 292 288 283 276 272 274 273 270 267 263 258 255 252 249
272 274 275 276 279 282 284 288 290 292 294 293 294 288 285 279 279 277 272 274 274 271 269 266 262 258 255
271 273 273 274 275 279 282 284 286 288 288 284 285 280 280 275 272 274 275 273 271 270 268 266 265 263 260
271 273 274 276 277 283 283 281 281 286 283 275 276 277 275 273 271 278 279 278 275 273 271 269 267 265 262
271 273 273 276 278 278 280 279 281 279 278 278 277 278 277 276 279 280 281 279 277 273 272 269 267 266 265
274 275 277 276 276 273 270 270 274 275 271 275 277 274 278 283 280 277 279 279 279 276 272 271 268 265 265
274 273 271 269 268 266 266 265 268 271 274 276 277 280 281 282 282 279 281 281 281 279 275 271 269 268 264
267 267 265 266 267 270 272 272 273 275 276 277 277 278 278 280 283 283 284 282 282 281 279 276 272 270 269
263 269 276 277 276 276 277 278 279 278 277 277 277 277 278 278 281 280 281 281 282 282 282 281 278 274 271
281 280 278 277 278 280 281 282 281 282 282 281 280 280 278 279 279 280 281 281 281 283 283 280 277 274 272
278 277 278 279 280 280 280 282 284 284 285 286 285 283 280 276 277 283 284 284 283 280 278 276 274 273 274
278 277 278 279 280 282 285 288 288 289 289 288 286 285 285 284 284 285 287 284 285 282 280 279 278 273 273